Location: Roanoke
(37.2710°N, 79.9420°W)
Time: 16:11:22
(UTC-05:00)

S-56A Canister/Altair - Pass Details

Date: 19 November 2019
Orbit: 633 x 2500 km, 38.9° (Epoch: 08 December)

Event Time Altitude Azimuth Distance (km) Brightness Sun altitude
Rises 18:16:12 0° 258° (WSW) 5,156 13.8 -13.8°
Reaches altitude 10° 18:20:05 10° 259° (WSW) 3,868 12.5 -14.6°
Maximum altitude 18:29:35 87° 348° (NNW) 1,170 8.4 -16.4°
Enters shadow 18:33:30 26° 77° (ENE) 1,822 8.8 -17.2°
Drops below altitude 10° 18:35:44 10° 79° (ENE) 2,568 - -17.6°
Sets 18:37:51 0° 79° (E) 3,349 - -18.0°
